NOAA NWS Hourly Roundups by Site

Regional Weather Roundup for Omaha, NE

To Select Another Site Choose from List

Select Site:  

000
ASUS43 KOAX 010602
RWRNE

WEATHER ROUNDUP FOR NEBRASKA
NATIONAL WEATHER SERVICE OMAHA NE
1200 AM CST THU DEC 01 2022

NOTES: SATELLITE DATA IS BEING USED TO AUGMENT CLOUD COVER ABOVE
       12000 FEET.
       "FAIR" INDICATES FEW OR NO CLOUDS BELOW 12,000 FEET WITH NO
       SIGNIFICANT WEATHER AND/OR OBSTRUCTIONS TO VISIBILITY.


NEZ001>004-019>022-054>056-010700-
NEBRASKA PANHANDLE

CITY           SKY/WX    TMP DP  RH WIND       PRES   REMARKS
SCOTTSBLUFF    PTCLDY    17  11  77 E7        29.86F WCI   8
6HR MIN TEMP:  17; 6HR MAX TEMP:  26;

ALLIANCE       PTCLDY    22  15  75 SE10      29.88F WCI  11
6HR MIN TEMP:  21; 6HR MAX TEMP:  24;

CHADRON        PTCLDY    31  19  61 SW7       29.81F WCI  24
6HR MIN TEMP:  27; 6HR MAX TEMP:  33;

GORDON         MOCLDY    27  17  64 SW23G32   29.83F WCI  13
6HR MIN TEMP:  21; 6HR MAX TEMP:  28;

SIDNEY         CLEAR     21  14  74 S13       29.87F WCI   9
6HR MIN TEMP:  21; 6HR MAX TEMP:  27;

$$

NEZ057>060-069>072-079>082-010700-
SOUTHWEST NEBRASKA

CITY           SKY/WX    TMP DP  RH WIND       PRES   REMARKS
NORTH PLATTE   CLEAR     28  15  58 S15G23    30.03F WCI  16
6HR MIN TEMP:  22; 6HR MAX TEMP:  30;

IMPERIAL       PTCLDY    25  15  66 SE13      29.97F WCI  14
6HR MIN TEMP:  23; 6HR MAX TEMP:  30;

MCCOOK         PTCLDY    28  16  60 SE8       30.08F WCI  20
6HR MIN TEMP:  25; 6HR MAX TEMP:  29;

$$

NEZ005>010-023>029-035>040-094-010700-
NORTH CENTRAL NEBRASKA

CITY           SKY/WX    TMP DP  RH WIND       PRES   REMARKS
VALENTINE      MOCLDY    24  14  65 S16       29.96F WCI  11
6HR MIN TEMP:  17; 6HR MAX TEMP:  24;

BROKEN BOW     CLEAR     24  13  62 S16G26    30.08F WCI  11
6HR MIN TEMP:  20; 6HR MAX TEMP:  25;

ORD            CLEAR     22  11  62 SE12      30.14F WCI  10
6HR MIN TEMP:  21; 6HR MAX TEMP:  24;

$$

NEZ041-046>049-061>064-073>077-083>087-010700-
SOUTH CENTRAL NEBRASKA

CITY           SKY/WX    TMP DP  RH WIND       PRES   REMARKS
GRAND ISLAND   CLEAR     24  11  57 S16G26    30.21F WCI  11
6HR MIN TEMP:  20; 6HR MAX TEMP:  26;

KEARNEY        CLEAR     23  15  71 S15       30.16F WCI  10
$$

NEZ011>018-030>034-042>045-010700-
NORTHEAST NEBRASKA

CITY           SKY/WX    TMP DP  RH WIND       PRES   REMARKS
NORFOLK        PTCLDY    21   9  59 SE13      30.23F WCI   9
6HR MIN TEMP:   9; 6HR MAX TEMP:  21;

BLAIR          CLEAR     18  10  71 S7        30.32F WCI   9
COLUMBUS       CLEAR     20  12  71 SE9       30.27F WCI   9
WAYNE          PTCLDY    15   8  73 S7        30.27S WCI   6
$$

NEZ050>053-065>068-078-088>093-010700-
SOUTHEAST NEBRASKA

CITY           SKY/WX    TMP DP  RH WIND       PRES   REMARKS
LINCOLN        CLEAR     17   8  67 S8        30.32F WCI   7
6HR MIN TEMP:  17; 6HR MAX TEMP:  24;

OMAHA EPPLEY   CLEAR     18  10  71 S8        30.35F WCI   8
6HR MIN TEMP:  16; 6HR MAX TEMP:  22;

FALLS CITY     CLEAR     17   9  70 SE5       30.39F WCI  10
6HR MIN TEMP:  16; 6HR MAX TEMP:  29;

$$

NEZ044-045-051>053-067-010700-
OMAHA AREA

CITY           SKY/WX    TMP DP  RH WIND       PRES   REMARKS
OMAHA EPPLEY   CLEAR     18  10  71 S8        30.35F WCI   8
6HR MIN TEMP:  16; 6HR MAX TEMP:  22;

BLAIR          CLEAR     18  10  71 S7        30.32F WCI   9
OFFUTT AFB     CLEAR     17  10  71 SE3       30.38S
WAHOO          CLEAR     13   6  76 SE7       30.32F WCI   2
$$


 

View Past Reports for Omaha, NE.

Products Courtesy of NOAA-NWS
NWS Information Parsing Script by Ken True at Saratoga Weather - Script by SE Lincoln Weather.